DW5244 Weather Reports


Display with metric or nautical units.
time (UTC)temp
F
wind
direction
speed
MPH
gust
MPH
rain 1hr
in
rain 24hr
in
rain mn
in
humidity
%
barometer
mb
20260902194523 97 340 6.0 11.0 0.00 0.00 0.00 28 1015.6
20260902193016 97 360 5.0 9.0 0.00 0.00 0.00 27 1015.9
20260902191516 97 302 6.0 10.0 0.00 0.00 0.00 28 1016.2
20260902190011 94 223 1.0 6.0 0.00 0.00 0.00 31 1016.5
20260902184510 95 305 6.0 10.0 0.00 0.00 0.00 29 1016.7
20260902183006 95 288 5.0 10.0 0.00 0.00 0.00 29 1017.0
20260902181503 93 331 3.0 9.0 0.00 0.00 0.00 31 1017.3
20260902180101 92 180 4.0 12.0 0.00 0.00 0.00 35 1017.5
20260902174557 95 360 2.0 9.0 0.00 0.00 0.00 31 1017.7
20260902173052 93 360 6.0 12.0 0.00 0.00 0.00 33 1017.9
20260902171603 91 173 2.0 8.0 0.00 0.00 0.00 38 1018.2
20260902170047 91 360 3.0 8.0 0.00 0.00 0.00 38 1018.4
20260902164542 88 261 1.0 8.0 0.00 0.00 0.00 39 1018.3
20260902163037 88 311 2.0 4.0 0.00 0.00 0.00 43 1018.4
20260902161532 87 292 2.0 6.0 0.00 0.00 0.00 40 1018.5
20260902160028 85 244 2.0 7.0 0.00 0.00 0.00 42 1018.5
20260902154527 83 147 0.0 4.0 0.00 0.00 0.00 48 1018.6
20260902153020 83 88 2.0 4.0 0.00 0.00 0.00 47 1018.7
20260902151516 81 26 5.0 9.0 0.00 0.00 0.00 55 1018.7
20260902150016 79 360 8.0 11.0 0.00 0.00 0.00 58 1018.7
20260902144512 78 360 7.0 10.0 0.00 0.00 0.00 59 1018.7
20260902143009 78 360 6.0 10.0 0.00 0.00 0.00 60 1018.7
20260902141507 77 360 6.0 11.0 0.00 0.00 0.00 63 1018.6
20260902140006 76 324 7.0 11.0 0.00 0.00 0.00 65 1018.5
20260902134502 75 360 6.0 9.0 0.00 0.00 0.00 67 1018.3
20260902133106 73 360 5.0 8.0 0.00 0.00 0.00 70 1018.2
20260902131554 72 343 4.0 8.0 0.00 0.00 0.00 72 1018.1
20260902130053 72 360 3.0 9.0 0.00 0.00 0.00 71 1017.9
20260902124549 72 335 6.0 11.0 0.00 0.00 0.00 71 1017.8
20260902123050 72 329 4.0 5.0 0.00 0.00 0.00 70 1017.7
20260902121545 73 360 4.0 9.0 0.00 0.00 0.00 70 1017.7
20260902120047 72 317 4.0 5.0 0.00 0.00 0.00 70 1017.7
20260902114552 73 341 4.0 10.0 0.00 0.00 0.00 70 1017.6
20260902113042 72 329 7.0 11.0 0.00 0.00 0.00 70 1017.5
20260902111546 72 313 5.0 9.0 0.00 0.00 0.00 71 1017.5
20260902110056 72 321 2.0 8.0 0.00 0.00 0.00 70 1017.5
20260902104539 73 339 3.0 8.0 0.00 0.00 0.00 69 1017.5
20260902103040 72 360 4.0 10.0 0.00 0.00 0.00 68 1017.3
20260902101540 72 315 3.0 8.0 0.00 0.00 0.00 68 1017.4
20260902100037 72 360 5.0 10.0 0.00 0.00 0.00 69 1017.4
20260902094542 73 360 6.0 10.0 0.00 0.00 0.00 69 1017.4
20260902093032 73 360 6.0 9.0 0.00 0.00 0.00 67 1017.3
20260902091530 74 360 5.0 9.0 0.00 0.00 0.00 66 1017.4
20260902090029 74 338 6.0 11.0 0.00 0.00 0.00 64 1017.3
20260902084538 74 360 8.0 12.0 0.00 0.00 0.00 66 1017.2
20260902083027 74 360 11.0 14.0 0.00 0.00 0.00 66 1017.3
20260902081526 74 360 9.0 15.0 0.00 0.00 0.00 65 1017.3
20260902080024 75 360 8.0 11.0 0.00 0.00 0.00 65 1017.2
20260902074522 75 360 5.0 10.0 0.00 0.00 0.00 63 1017.3
20260902073021 75 360 8.0 13.0 0.00 0.00 0.00 63 1017.3
20260902071529 75 360 6.0 12.0 0.00 0.00 0.00 64 1017.4
20260902070015 76 360 7.0 13.0 0.00 0.00 0.00 60 1017.4
20260902064514 77 360 8.0 12.0 0.00 0.00 0.00 57 1017.4
20260902063023 77 360 7.0 10.0 0.00 0.00 0.00 57 1017.4
20260902061510 78 360 2.0 9.0 0.00 0.00 0.00 55 1017.4
20260902060006 78 360 6.0 11.0 0.00 0.00 0.00 54 1017.6
20260902054510 78 360 4.0 8.0 0.00 0.00 0.00 53 1017.5
20260902053009 78 360 3.0 6.0 0.00 0.00 0.00 54 1017.4
20260902051501 78 360 6.0 9.0 0.00 0.00 0.00 53 1017.3
20260902050101 78 360 6.0 10.0 0.00 0.00 0.00 52 1017.4
20260902044558 79 360 5.0 10.0 0.00 0.00 0.00 52 1017.4
20260902043103 79 348 4.0 9.0 0.00 0.00 0.00 51 1017.2
20260902041555 79 360 1.0 5.0 0.00 0.00 0.00 50 1017.3
20260902040055 80 360 6.0 12.0 0.00 0.00 0.00 49 1017.1
20260902034554 81 360 4.0 13.0 0.00 0.00 0.00 47 1017.1
20260902033154 81 360 6.0 10.0 0.00 0.00 0.00 45 1016.8
20260902031553 82 360 11.0 18.0 0.00 0.00 0.00 44 1016.4
20260902030053 82 360 11.0 22.0 0.00 0.00 0.00 45 1016.1
20260902024552 82 360 12.0 21.0 0.00 0.00 0.00 44 1015.8
20260902023054 81 360 9.0 16.0 0.00 0.00 0.00 41 1015.6
20260902021557 81 360 11.0 16.0 0.00 0.00 0.00 49 1015.2
20260902020051 81 360 13.0 19.0 0.00 0.00 0.00 45 1015.0
20260902014550 80 360 11.0 19.0 0.00 0.00 0.00 47 1014.9
20260902013050 81 338 15.0 18.0 0.00 0.00 0.00 50 1014.7
20260902011548 81 360 11.0 19.0 0.00 0.00 0.00 47 1014.6
20260902010050 81 351 16.0 20.0 0.00 0.00 0.00 48 1014.5
20260902004548 81 342 15.0 20.0 0.00 0.00 0.00 49 1014.5
20260902003047 82 175 19.0 25.0 0.00 0.00 0.00 47 1014.3
20260902001547 83 349 16.0 22.0 0.00 0.00 0.00 46 1014.2
20260902000051 82 360 16.0 23.0 0.00 0.00 0.00 46 1014.3
20260901234556 83 156 17.0 23.0 0.00 0.00 0.00 48 1014.1
20260901233045 84 360 17.0 22.0 0.00 0.00 0.00 47 1013.9
20260901231544 87 344 18.0 23.0 0.00 0.00 0.00 39 1013.7
20260901230047 86 338 20.0 28.0 0.00 0.00 0.00 41 1013.4
20260901224543 89 360 15.0 23.0 0.00 0.00 0.00 37 1013.3
20260901223041 92 180 7.0 17.0 0.00 0.00 0.00 30 1013.5
20260901221606 92 100 6.0 14.0 0.00 0.00 0.00 31 1013.4
20260901220040 93 168 14.0 20.0 0.00 0.00 0.00 31 1013.2
20260901214540 97 270 7.0 16.0 0.00 0.00 0.00 23 1013.2
20260901213059 100 219 14.0 19.0 0.00 0.00 0.00 22 1013.1
20260901211543 101 234 3.0 14.0 0.00 0.00 0.00 23 1013.3
20260901210038 98 247 2.0 10.0 0.00 0.00 0.00 24 1013.5
20260901204533 97 247 0.0 15.0 0.00 0.00 0.00 26 1013.8
20260901203041 98 360 8.0 16.0 0.00 0.00 0.00 23 1014.2
20260901201527 96 285 3.0 12.0 0.00 0.00 0.00 25 1014.4
20260901200038 95 227 0.0 6.0 0.00 0.00 0.00 27 1014.6